Comisión Nacional del Agua
Subdirección General Técnica
Estación: Larrainzar
Clave: C07207
Estado: Chiapas
Municipio: Larráinzar

Fecha, Precipitación(mm), Temperatura Media(ºC), Temperatura Máxima(ºC), Temperatura Mínima(ºC), Evaporación(mm)
1972/11/07,2.30,-,-,-,-
1972/11/08,1.00,16.00,19.00,13.00,3.00
1972/11/09,2.00,15.50,21.50,9.50,5.00
1972/11/10,1.20,15.00,22.00,8.00,-
1972/11/11,0.10,16.00,21.00,11.00,0.70
1972/11/12,0.10,14.75,22.00,7.50,1.70
1972/11/13,0.50,16.00,24.00,8.00,3.40
1972/11/14,15.60,16.75,22.00,11.50,0.90
1972/11/15,0.40,16.75,19.50,14.00,1.60
1972/11/16,0.50,16.00,22.00,10.00,1.30
1972/11/17,0.50,15.25,21.50,9.00,3.10
1972/11/18,0.00,16.75,22.00,11.50,1.30
1972/11/19,0.30,17.75,24.50,11.00,2.40
1972/11/20,0.30,16.00,23.00,9.00,2.60
1972/11/21,0.50,15.50,22.00,9.00,1.70
1972/11/22,2.10,15.25,22.00,8.50,2.30
1972/11/23,15.00,17.00,22.00,12.00,2.20
1972/11/24,0.50,16.50,24.00,9.00,4.80
1972/11/25,14.00,17.50,25.00,10.00,5.20
1972/11/26,17.50,14.50,16.00,13.00,5.10
1972/11/27,0.50,14.50,21.00,8.00,6.00
1972/11/28,0.60,17.25,25.00,9.50,2.80
1972/11/29,0.40,16.75,22.50,11.00,2.20
1972/11/30,42.50,13.75,19.00,8.50,3.40
1972/12/01,30.00,13.50,15.00,12.00,1.80
1972/12/02,0.50,14.50,20.00,9.00,2.00
1972/12/03,0.50,17.00,24.00,10.00,1.60
1972/12/04,0.50,18.50,28.00,9.00,2.60
1972/12/05,0.50,16.00,24.00,8.00,3.80
1972/12/06,0.00,17.75,25.00,10.50,4.20
1972/12/07,0.50,15.00,18.00,12.00,0.90
1972/12/08,0.50,17.00,22.00,12.00,2.70
1972/12/09,0.50,17.50,28.00,7.00,3.00
1972/12/10,0.50,14.50,22.00,7.00,2.20
1972/12/11,1.00,14.50,21.00,8.00,1.80
1972/12/12,9.00,14.50,22.00,7.00,2.20
1972/12/13,0.50,14.50,21.00,8.00,2.60
1972/12/14,0.50,18.50,28.00,9.00,3.20
1972/12/15,72.00,16.00,22.00,10.00,2.90
1972/12/16,42.00,15.00,22.00,8.00,3.00
1972/12/17,0.50,7.50,10.00,5.00,3.10
1972/12/18,0.50,10.75,15.50,6.00,3.10
1972/12/19,0.50,13.00,18.00,8.00,3.10
1972/12/20,0.00,14.00,21.00,7.00,1.90
1972/12/21,5.00,15.00,18.00,12.00,2.00
1972/12/22,0.00,9.50,14.00,5.00,3.00
1972/12/23,0.00,13.50,24.00,3.00,2.60
1972/12/24,0.20,13.50,22.00,5.00,3.20
1972/12/25,0.50,9.75,19.50,0.00,3.30
1972/12/26,12.00,6.00,12.00,0.00,2.90
1972/12/27,0.20,10.50,16.00,5.00,1.80
1972/12/28,0.00,14.50,22.00,7.00,2.10
1972/12/29,0.00,14.25,23.00,5.50,3.20
1972/12/30,0.00,14.50,23.50,5.50,3.50
1972/12/31,0.00,13.75,22.50,5.00,1.20
1973/01/01,0.50,13.50,21.00,6.00,2.90
1973/01/02,0.30,14.00,22.00,6.00,1.90
1973/01/03,0.50,12.50,22.00,3.00,2.80
1973/01/04,0.50,13.25,22.00,4.50,3.10
1973/01/05,0.50,12.75,18.50,7.00,1.10
1973/01/06,0.30,14.25,23.00,5.50,2.30
1973/01/07,0.40,16.25,25.00,7.50,4.40
1973/01/08,0.50,15.25,22.50,8.00,2.50
1973/01/09,0.50,13.75,20.50,7.00,3.50
1973/01/10,0.30,13.75,20.50,7.00,2.30
1973/01/11,13.40,15.50,23.00,8.00,5.70
1973/01/12,58.00,6.50,7.00,6.00,4.00
1973/01/13,0.50,7.00,10.00,4.00,4.80
1973/01/14,0.50,7.50,13.50,1.50,2.50
1973/01/15,1.00,5.50,8.00,3.00,0.40
1973/01/16,0.50,9.00,13.00,5.00,0.10
1973/01/17,0.50,12.25,20.50,4.00,4.40
1973/01/18,0.00,13.75,22.00,5.50,2.30
1973/01/19,0.50,13.00,21.00,5.00,2.50
1973/01/20,0.00,13.50,23.00,4.00,6.40
1973/01/21,0.00,17.00,23.00,11.00,4.20
1973/01/22,0.50,15.50,24.00,7.00,5.00
1973/01/23,42.00,13.00,19.00,7.00,4.50
1973/01/24,7.00,11.25,16.00,6.50,6.20
1973/01/25,0.00,13.00,21.00,5.00,2.20
1973/01/26,0.50,12.50,20.00,5.00,1.60
1973/01/27,0.50,14.50,24.00,5.00,4.60
1973/01/28,32.50,11.50,14.00,9.00,4.10
1973/01/29,4.40,8.50,14.00,3.00,5.30
1973/01/30,1.00,8.50,14.00,3.00,2.30
1973/01/31,0.00,14.00,24.00,4.00,4.20
1973/02/01,0.50,12.00,20.00,4.00,2.50
1973/02/02,7.60,9.50,15.00,4.00,2.50
1973/02/03,4.80,11.50,14.00,9.00,0.20
1973/02/04,1.00,11.50,16.00,7.00,2.00
1973/02/05,0.20,13.00,21.00,5.00,2.60
1973/02/06,0.00,13.50,23.00,4.00,3.80
1973/02/07,0.00,12.00,20.00,4.00,5.40
1973/02/08,0.00,11.50,18.00,5.00,2.80
1973/02/09,40.00,14.50,18.00,11.00,2.70
1973/02/10,22.00,11.25,17.50,5.00,1.90
1973/02/11,0.00,11.50,20.00,3.00,2.20
1973/02/12,0.00,13.50,23.00,4.00,3.90
1973/02/13,0.00,15.50,25.00,6.00,4.00
1973/02/14,0.50,15.00,25.00,5.00,5.10
1973/02/15,0.00,11.50,15.00,8.00,2.10
1973/02/16,4.00,13.50,18.00,9.00,3.10
1973/02/17,1.00,14.00,23.00,5.00,3.10
1973/02/18,0.00,15.00,23.00,7.00,2.90
1973/02/19,2.00,15.50,23.00,8.00,3.10
1973/02/20,2.00,12.00,18.50,5.50,4.20
1973/02/21,1.00,13.00,20.00,6.00,1.50
1973/02/22,2.00,16.25,21.50,11.00,4.60
1973/02/23,0.00,15.50,24.00,7.00,3.00
1973/02/24,2.00,16.75,21.50,12.00,4.70
1973/02/25,2.00,14.50,22.00,7.00,4.50
1973/02/26,0.00,15.50,24.00,7.00,1.80
1973/02/27,10.00,15.25,24.00,6.50,1.20
1973/02/28,1.00,14.75,23.00,6.50,2.40
1973/03/01,0.00,14.50,22.00,7.00,3.50
1973/03/02,1.00,15.75,24.00,7.50,4.00
1973/03/03,0.00,18.00,27.00,9.00,4.90
1973/03/04,0.00,18.00,29.00,7.00,5.30
1973/03/05,0.00,18.00,28.00,8.00,1.00
1973/03/06,0.00,18.50,28.00,9.00,4.90
1973/03/07,0.50,18.50,29.00,8.00,4.80
1973/03/08,0.00,19.00,29.00,9.00,4.20
1973/03/09,0.50,19.00,29.00,9.00,3.80
1973/03/10,0.00,20.50,30.00,11.00,4.10
1973/03/11,0.00,22.00,30.00,14.00,3.40
1973/03/12,1.00,18.00,26.00,10.00,5.30
1973/03/13,0.00,16.75,24.50,9.00,0.20
1973/03/14,0.00,18.75,26.00,11.50,3.20
1973/03/15,0.00,20.00,28.00,12.00,6.50
1973/03/16,9.80,20.00,28.00,12.00,5.30
1973/03/17,6.00,10.00,12.00,8.00,3.20
1973/03/18,0.00,14.50,24.00,5.00,3.10
1973/03/19,0.00,19.25,29.00,9.50,4.10
1973/03/20,0.50,19.50,28.00,11.00,5.10
1973/03/21,0.50,19.00,27.00,11.00,3.90
1973/03/22,0.50,19.00,26.00,12.00,4.40
1973/03/23,0.00,19.50,28.00,11.00,3.10
1973/03/24,0.00,21.00,29.00,13.00,8.90
1973/03/25,0.00,22.00,29.00,15.00,6.40
1973/03/26,0.50,19.00,29.00,9.00,5.70
1973/03/27,0.00,19.00,29.00,9.00,3.10
1973/03/28,0.00,22.50,33.00,12.00,7.10
1973/03/29,0.00,21.00,30.00,12.00,4.40
1973/03/30,0.00,20.00,31.00,9.00,7.50
1973/03/31,0.00,20.50,29.00,12.00,2.40
1973/04/01,0.00,20.50,30.00,11.00,9.00
1973/04/02,0.00,20.50,29.00,12.00,0.80
1973/04/03,0.00,21.50,32.00,11.00,2.60
1973/04/04,43.00,15.00,20.00,10.00,1.70
1973/04/05,0.50,14.00,18.00,10.00,0.70
1973/04/06,20.00,18.50,25.00,12.00,2.40
1973/04/07,0.00,19.50,24.00,15.00,4.10
1973/04/08,0.00,18.00,23.00,13.00,3.40
1973/04/09,95.00,17.50,24.00,11.00,3.70
1973/04/10,85.00,16.25,21.50,11.00,4.20
1973/04/11,3.00,14.75,19.50,10.00,3.70
1973/04/12,0.00,16.75,22.00,11.50,2.70
1973/04/13,0.00,16.75,23.00,10.50,5.10
1973/04/14,0.00,16.50,24.50,8.50,4.50
1973/04/15,0.00,18.00,27.00,9.00,3.90
1973/04/16,10.00,18.00,25.00,11.00,12.70
1973/04/17,1.00,19.50,29.50,9.50,5.40
1973/04/18,27.50,19.25,26.00,12.50,5.30
1973/04/19,0.00,19.00,25.00,13.00,5.40
1973/04/20,1.00,20.25,28.00,12.50,5.90
1973/04/21,0.00,21.00,29.00,13.00,4.40
1973/04/22,0.00,20.00,29.00,11.00,4.30
1973/04/23,0.00,21.00,27.00,15.00,6.50
1973/04/24,0.00,18.00,27.00,9.00,5.40
1973/04/25,0.00,20.50,28.00,13.00,4.80
1973/04/26,0.00,21.00,29.00,13.00,6.30
1973/04/27,10.00,14.50,17.50,11.50,9.90
1973/04/28,16.00,15.00,17.00,13.00,13.80
1973/04/29,5.00,19.00,27.00,11.00,8.10
1973/04/30,0.00,20.50,29.00,12.00,5.10
1973/05/01,-,-,-,-,-
1973/05/02,-,-,-,-,-
1973/05/03,-,-,-,-,-
1973/05/04,-,-,-,-,-
1973/05/05,-,-,-,-,-
1973/05/06,-,-,-,-,-
1973/05/07,-,-,-,-,-
1973/05/08,-,-,-,-,-
1973/05/09,-,-,-,-,-
1973/05/10,-,-,-,-,-
1973/05/11,-,-,-,-,-
1973/05/12,-,-,-,-,-
1973/05/13,-,-,-,-,-
1973/05/14,-,-,-,-,-
1973/05/15,-,-,-,-,-
1973/05/16,-,-,-,-,-
1973/05/17,-,-,-,-,-
1973/05/18,-,-,-,-,-
1973/05/19,-,-,-,-,-
1973/05/20,-,-,-,-,-
1973/05/21,-,-,-,-,-
1973/05/22,-,-,-,-,-
1973/05/23,-,-,-,-,-
1973/05/24,-,-,-,-,-
1973/05/25,-,-,-,-,-
1973/05/26,-,-,-,-,-
1973/05/27,-,-,-,-,-
1973/05/28,-,-,-,-,-
1973/05/29,-,-,-,-,-
1973/05/30,-,-,-,-,-
1973/05/31,-,-,-,-,-
1973/06/01,17.00,15.00,19.00,11.00,1.00
1973/06/02,11.60,16.50,22.00,11.00,4.10
1973/06/03,8.50,16.25,21.50,11.00,0.60
1973/06/04,6.00,17.00,22.00,12.00,1.20
1973/06/05,0.00,16.50,23.00,10.00,4.30
1973/06/06,3.50,15.75,21.50,10.00,1.60
1973/06/07,0.00,16.25,21.50,11.00,2.70
1973/06/08,4.50,17.00,23.00,11.00,2.70
1973/06/09,25.00,20.00,28.00,12.00,1.40
1973/06/10,6.50,17.50,24.00,11.00,3.20
1973/06/11,1.00,17.25,23.50,11.00,3.60
1973/06/12,4.00,18.50,24.00,13.00,4.10
1973/06/13,0.90,17.25,22.00,12.50,3.00
1973/06/14,2.00,17.75,24.00,11.50,3.40
1973/06/15,18.00,17.25,23.50,11.00,3.00
1973/06/16,1.50,17.00,23.00,11.00,1.80
1973/06/17,18.50,17.75,25.00,10.50,3.30
1973/06/18,3.10,19.00,26.00,12.00,0.60
1973/06/19,14.00,17.50,24.00,11.00,1.00
1973/06/20,3.00,17.00,22.00,12.00,0.40
1973/06/21,15.00,16.50,20.00,13.00,0.70
1973/06/22,2.00,16.25,19.00,13.50,3.00
1973/06/23,2.00,16.75,23.00,10.50,3.50
1973/06/24,0.00,16.50,24.00,9.00,3.50
1973/06/25,0.00,10.50,12.00,9.00,3.00
1973/06/26,17.50,9.50,13.00,6.00,4.30
1973/06/27,14.20,14.25,20.50,8.00,2.30
1973/06/28,3.40,16.00,23.00,9.00,2.30
1973/06/29,12.00,16.50,22.00,11.00,3.20
1973/06/30,9.00,15.50,19.00,12.00,0.40
1973/07/01,5.00,16.00,19.00,13.00,1.00
1973/07/02,16.00,16.50,22.00,11.00,1.50
1973/07/03,0.00,17.00,23.00,11.00,2.90
1973/07/04,2.00,16.75,23.00,10.50,2.30
1973/07/05,0.00,18.00,24.00,12.00,1.40
1973/07/06,17.10,17.00,23.00,11.00,2.80
1973/07/07,21.50,16.50,24.00,9.00,3.20
1973/07/08,0.00,16.00,23.00,9.00,1.60
1973/07/09,3.00,16.00,22.00,10.00,3.10
1973/07/10,0.00,14.75,22.00,7.50,3.20
1973/07/11,0.00,15.50,23.00,8.00,3.50
1973/07/12,11.00,17.00,25.00,9.00,3.00
1973/07/13,7.50,17.00,23.00,11.00,2.10
1973/07/14,0.00,16.50,23.00,10.00,4.00
1973/07/15,0.00,16.25,23.00,9.50,3.10
1973/07/16,15.30,16.75,25.00,8.50,1.90
1973/07/17,1.00,16.00,22.00,10.00,4.70
1973/07/18,1.50,15.50,22.00,9.00,2.30
1973/07/19,11.00,16.00,23.00,9.00,3.80
1973/07/20,1.00,18.00,24.00,12.00,1.90
1973/07/21,12.50,15.75,20.50,11.00,2.50
1973/07/22,3.00,16.50,22.50,10.50,2.40
1973/07/23,21.00,16.25,21.50,11.00,3.70
1973/07/24,2.00,16.50,20.00,13.00,1.50
1973/07/25,10.00,15.25,18.00,12.50,0.70
1973/07/26,16.80,16.25,21.00,11.50,1.20
1973/07/27,0.50,17.00,22.00,12.00,2.70
1973/07/28,1.00,16.50,23.00,10.00,4.60
1973/07/29,0.00,16.50,24.00,9.00,3.20
1973/07/30,1.10,16.50,23.00,10.00,2.70
1973/07/31,6.10,17.50,24.00,11.00,4.30
1973/08/01,0.00,16.00,23.00,9.00,3.70
1973/08/02,1.00,16.25,22.00,10.50,1.30
1973/08/03,3.00,16.50,23.00,10.00,2.50
1973/08/04,3.70,16.00,22.00,10.00,0.40
1973/08/05,10.50,17.00,22.00,12.00,4.10
1973/08/06,17.00,15.50,21.50,9.50,3.10
1973/08/07,2.50,16.00,22.00,10.00,1.80
1973/08/08,4.20,16.50,22.00,11.00,1.80
1973/08/09,23.20,17.50,22.00,13.00,3.30
1973/08/10,3.60,17.50,23.00,12.00,1.00
1973/08/11,28.60,16.00,20.00,12.00,3.40
1973/08/12,22.00,15.75,21.50,10.00,0.90
1973/08/13,8.90,16.25,22.00,10.50,3.70
1973/08/14,16.30,15.00,19.00,11.00,1.80
1973/08/15,12.10,16.00,20.00,12.00,1.40
1973/08/16,8.00,16.50,21.00,12.00,2.20
1973/08/17,0.30,16.25,23.00,9.50,3.60
1973/08/18,2.00,15.50,23.00,8.00,3.20
1973/08/19,7.00,15.50,20.00,11.00,1.30
1973/08/20,58.00,15.50,18.00,13.00,2.50
1973/08/21,91.00,12.50,16.00,9.00,1.60
1973/08/22,20.00,14.50,16.00,13.00,3.00
1973/08/23,14.00,15.75,18.00,13.50,1.40
1973/08/24,59.00,16.50,21.00,12.00,5.10
1973/08/25,23.00,16.00,19.00,13.00,3.90
1973/08/26,8.00,16.00,19.00,13.00,2.70
1973/08/27,1.20,17.00,22.00,12.00,1.50
1973/08/28,29.50,17.50,22.00,13.00,2.90
1973/08/29,31.00,17.50,22.00,13.00,2.60
1973/08/30,20.20,17.00,21.00,13.00,1.60
1973/08/31,11.80,14.50,16.00,13.00,0.70
1973/09/01,1.10,16.00,19.00,13.00,0.70
1973/09/02,1.00,16.00,19.00,13.00,2.30
1973/09/03,0.00,17.50,22.00,13.00,3.70
1973/09/04,1.00,18.00,23.00,13.00,2.70
1973/09/05,0.60,17.00,20.00,14.00,4.10
1973/09/06,0.30,16.50,19.00,14.00,2.10
1973/09/07,0.00,18.00,22.00,14.00,3.50
1973/09/08,0.70,19.00,24.00,14.00,1.10
1973/09/09,23.30,18.00,23.00,13.00,4.00
1973/09/10,5.10,17.50,23.00,12.00,2.00
1973/09/11,23.00,18.00,25.00,11.00,3.40
1973/09/12,12.50,17.75,25.00,10.50,3.80
1973/09/13,1.30,18.00,25.00,11.00,4.20
1973/09/14,9.50,17.00,24.00,10.00,3.20
1973/09/15,10.10,16.50,21.00,12.00,1.60
1973/09/16,0.80,17.00,22.00,12.00,2.90
1973/09/17,0.30,17.50,24.00,11.00,2.80
1973/09/18,4.30,16.00,24.00,8.00,4.10
1973/09/19,0.20,14.50,21.00,8.00,4.50
1973/09/20,9.80,17.00,22.00,12.00,3.00
1973/09/21,3.00,17.00,22.00,12.00,3.00
1973/09/22,42.10,17.50,23.00,12.00,2.40
1973/09/23,3.60,16.00,21.00,11.00,2.00
1973/09/24,23.90,17.00,23.00,11.00,4.80
1973/09/25,2.50,17.50,24.00,11.00,5.40
1973/09/26,1.00,17.00,24.00,10.00,3.40
1973/09/27,1.60,17.00,24.00,10.00,2.70
1973/09/28,12.00,17.50,23.00,12.00,2.90
1973/09/29,16.50,17.50,23.00,12.00,3.20
1973/09/30,3.00,16.50,21.00,12.00,1.50
1973/10/01,3.10,16.00,22.00,10.00,2.70
1973/10/02,1.00,16.50,22.00,11.00,5.00
1973/10/03,10.00,14.50,19.00,10.00,1.00
1973/10/04,0.00,16.00,19.00,13.00,1.30
1973/10/05,5.70,13.00,19.00,7.00,1.90
1973/10/06,41.80,15.50,18.00,13.00,2.50
1973/10/07,10.00,15.50,18.00,13.00,3.40
1973/10/08,2.00,16.00,19.00,13.00,7.00
1973/10/09,19.00,16.00,19.00,13.00,5.00
1973/10/10,32.40,17.50,22.00,13.00,3.00
1973/10/11,2.50,16.50,22.00,11.00,-
1973/10/12,7.90,18.00,23.00,13.00,1.80
1973/10/13,5.70,16.50,22.00,11.00,1.70
1973/10/14,0.20,15.50,22.00,9.00,3.80
1973/10/15,12.00,15.50,18.00,13.00,1.40
1973/10/16,2.50,14.50,19.00,10.00,1.70
1973/10/17,0.10,16.00,20.00,12.00,2.10
1973/10/18,18.00,15.50,19.00,12.00,0.30
1973/10/19,1.70,14.50,16.00,13.00,0.90
1973/10/20,27.00,14.50,19.00,10.00,1.90
1973/10/21,8.00,14.00,15.00,13.00,1.80
1973/10/22,17.80,14.50,17.00,12.00,1.70
1973/10/23,14.40,14.00,15.00,13.00,2.30
1973/10/24,22.30,15.00,18.00,12.00,2.20
1973/10/25,2.30,15.50,19.00,12.00,0.20
1973/10/26,0.30,15.50,21.00,10.00,3.20
1973/10/27,3.20,15.00,18.00,12.00,-
1973/10/28,9.00,14.50,18.00,11.00,1.00
1973/10/29,0.80,13.50,16.00,11.00,6.30
1973/10/30,0.10,16.50,21.00,12.00,2.20
1973/10/31,0.20,18.00,25.00,11.00,3.30
1973/11/01,1.00,16.00,19.00,13.00,-
1973/11/02,1.00,17.00,24.00,10.00,-
1973/11/03,1.00,16.50,23.00,10.00,-
1973/11/04,1.00,15.25,21.00,9.50,-
1973/11/05,2.00,17.50,23.00,12.00,-
1973/11/06,0.50,16.00,20.00,12.00,-
1973/11/07,0.00,15.00,20.00,10.00,-
1973/11/08,0.40,14.00,21.00,7.00,-
1973/11/09,8.50,16.00,21.00,11.00,-
1973/11/10,0.40,12.50,13.00,12.00,-
1973/11/11,0.20,11.00,15.00,7.00,-
1973/11/12,0.70,11.50,15.00,8.00,-
1973/11/13,0.20,14.00,19.00,9.00,-
1973/11/14,0.10,15.00,22.00,8.00,-
1973/11/15,0.20,14.50,22.00,7.00,-
1973/11/16,4.20,15.00,22.00,8.00,-
1973/11/17,1.00,15.50,20.00,11.00,-
1973/11/18,1.00,15.00,23.00,7.00,-
1973/11/19,0.00,15.50,23.00,8.00,-
1973/11/20,0.00,16.50,24.00,9.00,-
1973/11/21,0.50,17.00,25.00,9.00,-
1973/11/22,2.00,16.50,24.00,9.00,-
1973/11/23,1.10,16.00,22.00,10.00,-
1973/11/24,0.50,17.50,24.00,11.00,-
1973/11/25,4.60,16.50,23.00,10.00,-
1973/11/26,0.00,17.00,23.00,11.00,-
1973/11/27,3.00,17.50,25.00,10.00,-
1973/11/28,70.10,12.00,14.00,10.00,-
1973/11/29,10.90,9.50,11.00,8.00,-
1973/11/30,38.00,9.50,11.00,8.00,-
1973/12/01,1.90,9.00,10.00,8.00,0.60
1973/12/02,0.00,12.00,17.00,7.00,2.10
1973/12/03,0.20,13.75,21.50,6.00,3.00
1973/12/04,0.00,16.00,23.00,9.00,3.10
1973/12/05,0.00,15.50,22.00,9.00,3.00
1973/12/06,0.90,15.50,19.00,12.00,0.10
1973/12/07,11.80,10.50,13.00,8.00,2.40
1973/12/08,3.70,8.50,9.00,8.00,1.90
1973/12/09,0.50,6.00,11.00,1.00,2.80
1973/12/10,0.10,7.50,13.00,2.00,2.20
1973/12/11,0.50,8.50,15.00,2.00,2.80
1973/12/12,0.00,9.50,19.00,0.00,3.20
1973/12/13,0.00,12.75,22.00,3.50,2.40
1973/12/14,0.00,13.50,23.00,4.00,4.20
1973/12/15,0.00,15.50,24.00,7.00,3.30
1973/12/16,9.10,9.50,12.00,7.00,1.40
1973/12/17,0.20,8.00,11.00,5.00,0.50
1973/12/18,0.50,12.00,19.00,5.00,2.30
1973/12/19,1.00,13.00,20.00,6.00,1.90
1973/12/20,16.50,9.25,13.50,5.00,2.00
1973/12/21,0.80,6.50,8.00,5.00,0.30
1973/12/22,0.00,10.00,17.00,3.00,2.70
1973/12/23,0.00,12.50,20.00,5.00,4.30
1973/12/24,0.00,16.50,22.00,11.00,4.90
1973/12/25,0.00,16.00,23.00,9.00,4.40
1973/12/26,0.30,15.00,23.00,7.00,3.30
1973/12/27,0.20,12.50,20.00,5.00,1.00
1973/12/28,0.00,13.75,21.00,6.50,2.00
1973/12/29,0.00,13.50,22.00,5.00,2.90
1973/12/30,0.00,15.00,23.00,7.00,3.00
1973/12/31,0.00,15.00,23.00,7.00,4.00
1974/01/01,0.20,14.50,21.00,8.00,3.70
1974/01/02,0.00,13.50,21.00,6.00,4.20
1974/01/03,1.00,14.50,22.00,7.00,0.80
1974/01/04,1.00,13.00,17.00,9.00,0.10
1974/01/05,0.50,11.50,16.00,7.00,1.60
1974/01/06,0.10,13.00,18.00,8.00,0.80
1974/01/07,0.10,15.00,22.00,8.00,2.70
1974/01/08,0.40,13.00,21.00,5.00,3.20
1974/01/09,0.00,14.50,22.00,7.00,2.10
1974/01/10,0.10,15.50,23.00,8.00,3.10
1974/01/11,0.00,15.50,23.00,8.00,2.70
1974/01/12,1.80,11.50,15.00,8.00,2.90
1974/01/13,2.30,12.00,15.00,9.00,2.80
1974/01/14,0.00,13.00,18.00,8.00,1.50
1974/01/15,0.10,12.50,18.00,7.00,3.00
1974/01/16,0.50,12.00,18.00,6.00,1.80
1974/01/17,0.50,12.50,20.00,5.00,2.70
1974/01/18,0.00,15.50,23.00,8.00,1.00
1974/01/19,0.00,15.50,23.00,8.00,1.80
1974/01/20,0.00,15.50,23.00,8.00,4.50
1974/01/21,0.00,13.00,19.00,7.00,0.60
1974/01/22,0.10,13.50,21.00,6.00,2.10
1974/01/23,7.00,14.50,22.00,7.00,2.20
1974/01/24,0.80,14.50,21.00,8.00,2.40
1974/01/25,0.40,12.00,20.00,4.00,3.00
1974/01/26,1.50,13.50,21.00,6.00,4.50
1974/01/27,0.00,14.50,23.00,6.00,2.00
1974/01/28,9.10,16.00,24.00,8.00,3.20
1974/01/29,0.00,16.00,22.00,10.00,3.00
1974/01/30,0.00,14.00,20.00,8.00,3.80
1974/01/31,0.50,14.00,22.00,6.00,4.10
1974/02/01,1.00,14.50,22.00,7.00,3.80
1974/02/02,0.00,15.50,24.00,7.00,4.10
1974/02/03,11.10,16.50,25.00,8.00,4.00
1974/02/04,0.50,15.00,18.00,12.00,2.90
1974/02/05,0.00,13.50,22.00,5.00,3.20
1974/02/06,0.20,15.00,23.00,7.00,3.20
1974/02/07,0.00,14.00,22.00,6.00,2.80
1974/02/08,12.50,13.00,19.00,7.00,2.50
1974/02/09,20.00,13.00,19.00,7.00,3.30
1974/02/10,1.50,10.50,14.00,7.00,0.80
1974/02/11,2.50,9.00,13.00,5.00,1.60
1974/02/12,0.40,8.00,12.00,4.00,3.90
1974/02/13,0.40,8.00,13.00,3.00,2.90
1974/02/14,0.00,13.00,23.00,3.00,4.50
1974/02/15,0.00,14.00,24.00,4.00,4.30
1974/02/16,0.00,14.50,21.00,8.00,2.00
1974/02/17,0.50,12.50,20.00,5.00,2.50
1974/02/18,0.00,14.50,24.00,5.00,3.20
1974/02/19,1.00,16.50,27.00,6.00,3.70
1974/02/20,0.00,16.00,26.00,6.00,3.90
1974/02/21,0.00,16.50,26.00,7.00,4.70
1974/02/22,24.60,12.00,14.00,10.00,1.30
1974/02/23,2.00,12.50,17.00,8.00,1.80
1974/02/24,7.00,9.50,13.00,6.00,3.60
1974/02/25,34.80,11.50,13.00,10.00,0.30
1974/02/26,6.00,5.90,6.00,5.80,4.60
1974/02/27,0.10,9.00,17.00,1.00,3.80
1974/02/28,0.10,11.00,19.00,3.00,3.80
1974/03/01,0.00,9.00,17.00,1.00,2.80
1974/03/02,0.00,10.00,19.00,1.00,2.00
1974/03/03,0.00,13.50,22.00,5.00,4.70
1974/03/04,0.20,15.00,23.00,7.00,3.80
1974/03/05,1.00,15.50,23.00,8.00,1.60
1974/03/06,0.10,14.50,18.00,11.00,1.90
1974/03/07,1.00,15.00,21.00,9.00,1.50
1974/03/08,25.00,15.50,23.00,8.00,2.50
1974/03/09,0.20,16.25,22.00,10.50,4.00
1974/03/10,18.00,16.50,23.00,10.00,4.20
1974/03/11,0.50,16.00,22.00,10.00,2.30
1974/03/12,18.00,15.50,22.00,9.00,1.00
1974/03/13,5.00,15.50,23.00,8.00,4.70
1974/03/14,4.00,11.25,13.50,9.00,4.80
1974/03/15,2.00,15.00,23.00,7.00,3.10
1974/03/16,0.00,15.50,21.00,10.00,2.00
1974/03/17,0.30,11.00,14.00,8.00,1.70
1974/03/18,0.00,12.75,15.00,10.50,3.30
1974/03/19,0.00,12.50,14.00,11.00,2.30
1974/03/20,0.00,12.75,14.50,11.00,2.90
1974/03/21,0.00,19.00,27.00,11.00,4.80
1974/03/22,0.00,16.75,24.00,9.50,4.20
1974/03/23,0.00,18.00,26.00,10.00,3.50
1974/03/24,6.00,17.00,25.00,9.00,5.00
1974/03/25,0.00,17.50,26.00,9.00,2.20
1974/03/26,0.00,16.50,24.00,9.00,2.00
1974/03/27,8.50,16.00,24.00,8.00,2.90
1974/03/28,1.50,16.00,24.00,8.00,2.90
1974/03/29,0.00,16.50,24.00,9.00,3.20
1974/03/30,0.00,17.00,25.00,9.00,2.40
1974/03/31,0.00,17.00,25.00,9.00,3.10
1974/04/01,0.00,18.00,24.00,12.00,4.00
1974/04/02,0.00,18.00,25.00,11.00,5.20
1974/04/03,0.00,18.00,25.00,11.00,3.70
1974/04/04,8.50,18.00,25.00,11.00,8.40
1974/04/05,30.50,14.00,17.00,11.00,0.60
1974/04/06,6.00,16.50,24.00,9.00,0.50
1974/04/07,1.00,14.50,21.00,8.00,3.20
1974/04/08,13.50,16.50,24.00,9.00,4.90
1974/04/09,0.50,16.00,20.00,12.00,3.90
1974/04/10,2.50,15.00,21.00,9.00,2.00
1974/04/11,0.00,16.00,22.00,10.00,1.70
1974/04/12,1.00,16.50,23.00,10.00,3.80
1974/04/13,1.00,17.50,25.00,10.00,4.90
1974/04/14,0.50,18.00,26.00,10.00,4.80
1974/04/15,0.00,15.00,23.00,7.00,2.30
1974/04/16,5.50,14.00,16.00,12.00,0.10
1974/04/17,1.00,17.00,22.00,12.00,5.70
1974/04/18,0.00,15.50,22.00,9.00,5.00
1974/04/19,0.00,16.00,24.00,8.00,2.80
1974/04/20,0.00,16.50,25.00,8.00,5.40
1974/04/21,0.00,16.00,24.00,8.00,6.70
1974/04/22,0.00,16.50,24.00,9.00,-
1974/04/23,1.30,17.50,23.00,12.00,4.00
1974/04/24,0.20,17.00,21.00,13.00,3.70
1974/04/25,0.40,14.00,20.00,8.00,2.30
1974/04/26,8.00,11.00,14.00,8.00,0.70
1974/04/27,0.50,14.00,18.00,10.00,1.20
1974/04/28,1.00,15.00,21.00,9.00,5.10
1974/04/29,1.00,16.50,24.00,9.00,3.80
1974/04/30,0.00,16.50,22.00,11.00,2.50
1974/05/01,0.00,16.50,22.00,11.00,3.10
1974/05/02,0.00,18.00,25.00,11.00,4.00
1974/05/03,0.00,18.00,24.00,12.00,4.00
1974/05/04,0.00,18.00,25.00,11.00,3.10
1974/05/05,0.00,17.00,23.00,11.00,4.00
1974/05/06,0.00,17.00,23.00,11.00,6.80
1974/05/07,0.00,17.50,26.00,9.00,4.00
1974/05/08,0.00,19.50,28.00,11.00,6.50
1974/05/09,0.00,19.50,28.00,11.00,3.80
1974/05/10,0.00,21.50,28.00,15.00,7.70
1974/05/11,0.00,21.50,28.00,15.00,4.20
1974/05/12,2.70,21.50,30.00,13.00,4.40
1974/05/13,0.00,20.50,27.00,14.00,4.90
1974/05/14,0.00,18.00,24.00,12.00,6.60
1974/05/15,4.80,19.00,26.00,12.00,2.40
1974/05/16,0.00,22.50,32.00,13.00,5.00
1974/05/17,5.20,18.00,24.00,12.00,4.70
1974/05/18,0.20,16.00,23.00,9.00,5.10
1974/05/19,0.20,15.50,22.00,9.00,4.10
1974/05/20,0.00,18.00,28.00,8.00,2.80
1974/05/21,25.60,18.50,26.00,11.00,3.30
1974/05/22,10.10,19.00,28.00,10.00,1.20
1974/05/23,17.50,17.00,24.00,10.00,8.70
1974/05/24,14.60,16.50,20.00,13.00,1.40
1974/05/25,0.40,15.00,21.00,9.00,2.80
1974/05/26,3.40,16.50,22.00,11.00,2.90
1974/05/27,7.80,17.50,23.00,12.00,3.80
1974/05/28,25.00,17.00,22.00,12.00,9.30
1974/05/29,4.30,16.50,22.00,11.00,3.20
1974/05/30,6.40,17.00,22.00,12.00,2.30
1974/05/31,2.30,17.50,22.00,13.00,3.60
1974/06/01,13.90,18.50,24.00,13.00,1.70
1974/06/02,2.10,17.00,22.00,12.00,0.30
1974/06/03,9.10,16.50,22.00,11.00,2.50
1974/06/04,1.00,15.50,22.00,9.00,3.90
1974/06/05,6.20,17.50,24.00,11.00,3.40
1974/06/06,9.00,17.00,22.00,12.00,3.30
1974/06/07,0.00,17.00,22.00,12.00,5.60
1974/06/08,0.00,16.00,20.00,12.00,5.20
1974/06/09,8.10,18.50,24.00,13.00,1.20
1974/06/10,1.70,17.50,23.00,12.00,4.30
1974/06/11,3.30,17.50,23.00,12.00,4.20
1974/06/12,1.10,15.50,21.00,10.00,2.30
1974/06/13,0.00,15.00,20.00,10.00,1.40
1974/06/14,52.80,15.50,20.00,11.00,1.40
1974/06/15,7.30,17.50,23.00,12.00,0.80
1974/06/16,7.90,15.00,18.00,12.00,0.40
1974/06/17,12.30,16.50,21.00,12.00,1.20
1974/06/18,2.60,15.00,19.00,11.00,2.30
1974/06/19,28.10,14.50,19.00,10.00,1.50
1974/06/20,55.20,16.00,20.00,12.00,1.10
1974/06/21,23.40,15.50,19.00,12.00,2.20
1974/06/22,2.00,15.00,17.00,13.00,2.90
1974/06/23,6.00,15.00,16.00,14.00,5.00
1974/06/24,14.10,16.00,19.00,13.00,2.90
1974/06/25,3.90,15.00,17.00,13.00,0.40
1974/06/26,7.70,13.00,14.00,12.00,0.60
1974/06/27,14.60,13.50,17.00,10.00,1.50
1974/06/28,20.00,13.50,19.00,8.00,4.30
1974/06/29,8.20,15.50,22.00,9.00,1.50
1974/06/30,0.00,16.50,21.00,12.00,2.40
1974/07/01,40.00,16.50,22.00,11.00,4.10
1974/07/02,15.00,15.00,20.00,10.00,4.70
1974/07/03,19.00,15.50,22.00,9.00,5.10
1974/07/04,6.00,14.50,21.00,8.00,1.90
1974/07/05,0.00,15.50,22.00,9.00,6.10
1974/07/06,1.00,15.50,22.00,9.00,2.70
1974/07/07,0.00,15.00,22.00,8.00,3.10
1974/07/08,0.00,15.50,20.00,11.00,1.80
1974/07/09,11.80,16.50,23.00,10.00,3.90
1974/07/10,0.10,15.00,20.00,10.00,1.50
1974/07/11,20.00,16.00,21.00,11.00,3.50
1974/07/12,36.00,15.50,21.00,10.00,3.10
1974/07/13,35.00,16.50,21.00,12.00,3.70
1974/07/14,70.00,17.00,23.00,11.00,3.10